Location: Unspecified
(0.0000°N, 0.0000°E)
Time: 03:30:29
(UTC+00:00)

Vanguard 3 - Pass Details

Date: 10 December 2017
Orbit: 508 x 3264 km, 33.4° (Epoch: 15 January)

Event Time Altitude Azimuth Distance (km) Brightness Sun altitude
Rises 09:25:00 0° 237° (WSW) 5,524 11.2 47.4°
Reaches altitude 10° 09:29:23 10° 239° (WSW) 4,056 10.7 48.3°
Maximum altitude 09:39:06 72° 322° (NW) 1,134 8.5 50.2°
Drops below altitude 10° 09:44:31 10° 47° (NE) 2,328 9.7 51.3°
Sets 09:46:27 0° 49° (NE) 3,060 10.2 51.7°
